• In Uzbekistan
  • List of Countries
  • For 7 days
  • Water Temperature
  • Satellite Maps
  • Weather Map
  • Weather Widgets
  • user-avatar
    Login

    Hourly Weather Edewecht

    Today, 21 November, Tuesday

    Time Temperature Precipitation Wind Pressure Humidity
    00:00 +5°C° 0.2 mm 3 mps 755 mmHg 96%
    01:00 +7°C° 0 mm 2 mps 755 mmHg 97%
    02:00 +7°C° 0.1 mm 2 mps 755 mmHg 97%
    03:00 +7°C° 0.1 mm 3 mps 755 mmHg 96%
    04:00 +8°C° 0.1 mm 3 mps 755 mmHg 96%
    05:00 +8°C° 0.2 mm 3 mps 755 mmHg 96%
    06:00 +8°C° 0.2 mm 3 mps 755 mmHg 96%
    07:00 +8°C° 0 mm 2 mps 755 mmHg 96%
    08:00 +8°C° 0.3 mm 2 mps 755 mmHg 96%
    09:00 +8°C° 0.3 mm 3 mps 756 mmHg 96%
    10:00 +9°C° 0.3 mm 3 mps 756 mmHg 96%
    11:00 +9°C° 0.6 mm 3 mps 756 mmHg 96%
    12:00 +9°C° 0.6 mm 3 mps 755 mmHg 96%
    13:00 +9°C° 0.6 mm 2 mps 755 mmHg 96%
    14:00 +9°C° 1.2 mm 2 mps 755 mmHg 96%
    15:00 +9°C° 1.2 mm 2 mps 755 mmHg 97%
    16:00 +9°C° 1.2 mm 2 mps 754 mmHg 97%
    17:00 +10°C° 1 mm 3 mps 754 mmHg 97%
    18:00 +10°C° 1 mm 4 mps 754 mmHg 96%
    19:00 +9°C° 1 mm 5 mps 754 mmHg 95%
    20:00 +10°C° 0.6 mm 5 mps 754 mmHg 93%
    21:00 +10°C° 0.6 mm 6 mps 754 mmHg 92%
    22:00 +10°C° 0.6 mm 7 mps 753 mmHg 90%
    23:00 +10°C° 0.1 mm 7 mps 753 mmHg 89%

    Tomorrow, 22 November, Wednesday

    Time Temperature Precipitation Wind Pressure Humidity
    00:00 +10°C° 0.1 mm 7 mps 753 mmHg 89%
    01:00 +9°C° 0.1 mm 7 mps 753 mmHg 89%
    02:00 +9°C° 0.4 mm 7 mps 752 mmHg 89%
    03:00 +10°C° 0.4 mm 8 mps 752 mmHg 89%
    04:00 +10°C° 0.4 mm 8 mps 752 mmHg 89%
    05:00 +10°C° 0.5 mm 8 mps 752 mmHg 88%
    06:00 +10°C° 0.5 mm 8 mps 751 mmHg 88%
    07:00 +10°C° 0.5 mm 8 mps 751 mmHg 87%
    08:00 +10°C° 0.2 mm 8 mps 752 mmHg 87%
    09:00 +10°C° 0.2 mm 8 mps 752 mmHg 86%
    10:00 +10°C° 0.2 mm 8 mps 752 mmHg 86%
    11:00 +10°C° 0 mm 8 mps 752 mmHg 85%
    12:00 +10°C° 0 mm 7 mps 752 mmHg 84%
    13:00 +10°C° 0 mm 7 mps 752 mmHg 84%
    14:00 +10°C° 0 mm 7 mps 752 mmHg 83%
    15:00 +9°C° 0 mm 6 mps 752 mmHg 83%
    16:00 +9°C° 0 mm 5 mps 752 mmHg 82%
    17:00 +9°C° 0 mm 6 mps 751 mmHg 80%
    18:00 +8°C° 0 mm 6 mps 751 mmHg 78%
    19:00 +8°C° 0 mm 6 mps 751 mmHg 76%
    20:00 +8°C° 0 mm 6 mps 751 mmHg 74%
    21:00 +8°C° 0 mm 7 mps 751 mmHg 72%
    22:00 +8°C° 0 mm 7 mps 750 mmHg 70%
    23:00 +8°C° 0 mm 7 mps 750 mmHg 68%

    Day after tomorrow, 23 November, Thursday

    Time Temperature Precipitation Wind Pressure Humidity
    00:00 +8°C° 0 mm 7 mps 750 mmHg 66%
    01:00 +8°C° 0 mm 7 mps 750 mmHg 64%
    02:00 +8°C° 0 mm 7 mps 749 mmHg 64%
    03:00 +8°C° 0 mm 7 mps 749 mmHg 63%
    04:00 +8°C° 0 mm 7 mps 749 mmHg 62%
    05:00 +7°C° 0 mm 8 mps 748 mmHg 62%
    06:00 +9°C° 0 mm 8 mps 748 mmHg 62%
    07:00 +9°C° 0 mm 8 mps 748 mmHg 63%
    08:00 +10°C° 0 mm 9 mps 748 mmHg 65%
    09:00 +10°C° 0 mm 9 mps 749 mmHg 67%
    10:00 +11°C° 0 mm 10 mps 749 mmHg 69%
    11:00 +11°C° 0 mm 9 mps 749 mmHg 69%
    12:00 +12°C° 0 mm 9 mps 750 mmHg 69%
    13:00 +13°C° 0 mm 9 mps 750 mmHg 69%
    14:00 +12°C° 0.1 mm 8 mps 751 mmHg 72%
    15:00 +12°C° 0.1 mm 8 mps 751 mmHg 75%
    16:00 +12°C° 0.1 mm 7 mps 752 mmHg 78%
    17:00 +11°C° 0 mm 6 mps 753 mmHg 79%
    18:00 +10°C° 0 mm 6 mps 753 mmHg 80%
    19:00 +9°C° 0 mm 5 mps 753 mmHg 81%
    20:00 +9°C° 0 mm 5 mps 753 mmHg 84%
    21:00 +10°C° 0 mm 6 mps 753 mmHg 86%
    22:00 +10°C° 0 mm 7 mps 753 mmHg 89%
    23:00 +10°C° 0 mm 7 mps 753 mmHg 86%

    24 November, Friday

    Time Temperature Precipitation Wind Pressure Humidity
    00:00 +11°C° 0 mm 8 mps 753 mmHg 84%
    01:00 +11°C° 0 mm 9 mps 753 mmHg 81%
    02:00 +11°C° 0.1 mm 8 mps 754 mmHg 82%
    03:00 +11°C° 0.1 mm 8 mps 754 mmHg 82%
    04:00 +12°C° 0.1 mm 7 mps 754 mmHg 83%
    05:00 +11°C° 0.2 mm 6 mps 754 mmHg 84%
    06:00 +11°C° 0.2 mm 6 mps 755 mmHg 85%
    07:00 +12°C° 0.2 mm 5 mps 755 mmHg 86%
    08:00 +12°C° 0.9 mm 5 mps 755 mmHg 88%
    09:00 +11°C° 0.9 mm 4 mps 755 mmHg 90%
    10:00 +11°C° 0.9 mm 4 mps 756 mmHg 92%
    11:00 +11°C° 0.8 mm 4 mps 755 mmHg 91%
    12:00 +11°C° 0.8 mm 4 mps 755 mmHg 90%
    13:00 +11°C° 0.8 mm 4 mps 755 mmHg 89%
    14:00 +11°C° 1.1 mm 4 mps 755 mmHg 90%
    15:00 +11°C° 1.1 mm 4 mps 754 mmHg 90%
    16:00 +11°C° 1.1 mm 4 mps 754 mmHg 90%
    17:00 +11°C° 0.5 mm 4 mps 754 mmHg 89%
    18:00 +11°C° 0.5 mm 4 mps 754 mmHg 88%
    19:00 +10°C° 0.5 mm 5 mps 754 mmHg 87%
    20:00 +12°C° 0.1 mm 5 mps 754 mmHg 86%
    21:00 +12°C° 0.1 mm 5 mps 754 mmHg 85%
    22:00 +11°C° 0.1 mm 6 mps 754 mmHg 83%
    23:00 +11°C° 0.1 mm 6 mps 754 mmHg 85%

    25 November, Saturday

    Time Temperature Precipitation Wind Pressure Humidity
    00:00 +11°C° 0.1 mm 6 mps 753 mmHg 86%
    01:00 +11°C° 0.1 mm 6 mps 753 mmHg 87%
    02:00 +11°C° 0.2 mm 6 mps 753 mmHg 85%
    03:00 +11°C° 0.2 mm 6 mps 752 mmHg 83%
    04:00 +11°C° 0.2 mm 7 mps 751 mmHg 82%
    05:00 +11°C° 0.1 mm 7 mps 750 mmHg 80%
    06:00 +11°C° 0.1 mm 8 mps 750 mmHg 79%
    07:00 +11°C° 0.1 mm 8 mps 749 mmHg 78%
    08:00 +11°C° 0.1 mm 9 mps 749 mmHg 78%
    09:00 +11°C° 0.1 mm 9 mps 749 mmHg 77%
    10:00 +12°C° 0.1 mm 9 mps 749 mmHg 77%
    11:00 +11°C° 0.1 mm 11 mps 748 mmHg 71%
    12:00 +9°C° 0.1 mm 12 mps 748 mmHg 65%
    13:00 +9°C° 0.1 mm 13 mps 747 mmHg 60%
    14:00 +8°C° 0.1 mm 15 mps 747 mmHg 59%
    15:00 +6°C° 0.1 mm 16 mps 747 mmHg 59%
    16:00 +5°C° 0.1 mm 17 mps 747 mmHg 59%
    17:00 +5°C° 0.3 mm 16 mps 748 mmHg 62%
    18:00 +4°C° 0.3 mm 15 mps 750 mmHg 64%
    19:00 +4°C° 0.3 mm 14 mps 752 mmHg 67%
    20:00 +3°C° 0 mm 13 mps 753 mmHg 66%
    21:00 +3°C° 0 mm 11 mps 755 mmHg 64%
    22:00 +3°C° 0 mm 10 mps 756 mmHg 63%
    23:00 +3°C° 0 mm 10 mps 756 mmHg 64%

    26 November, Sunday

    Time Temperature Precipitation Wind Pressure Humidity
    00:00 +2°C° 0 mm 9 mps 757 mmHg 66%
    01:00 +2°C° 0 mm 9 mps 757 mmHg 68%
    02:00 +2°C° 0 mm 9 mps 757 mmHg 68%
    03:00 +2°C° 0 mm 9 mps 757 mmHg 67%
    04:00 +2°C° 0 mm 9 mps 757 mmHg 67%
    05:00 +1°C° 0 mm 9 mps 757 mmHg 67%
    06:00 +1°C° 0 mm 9 mps 758 mmHg 68%
    07:00 +1°C° 0 mm 9 mps 758 mmHg 68%
    08:00 +1°C° 0.1 mm 9 mps 758 mmHg 68%
    09:00 +2°C° 0.1 mm 9 mps 758 mmHg 68%
    10:00 +2°C° 0.1 mm 10 mps 759 mmHg 68%
    11:00 +2°C° 0.1 mm 10 mps 759 mmHg 66%
    12:00 +3°C° 0.1 mm 10 mps 759 mmHg 64%
    13:00 +3°C° 0.1 mm 11 mps 759 mmHg 61%
    14:00 +3°C° 0.3 mm 10 mps 759 mmHg 66%
    15:00 +3°C° 0.3 mm 10 mps 759 mmHg 70%
    16:00 +3°C° 0.3 mm 10 mps 759 mmHg 74%
    17:00 +3°C° 0.4 mm 9 mps 759 mmHg 75%
    18:00 +4°C° 0.4 mm 8 mps 760 mmHg 77%
    19:00 +4°C° 0.4 mm 8 mps 760 mmHg 79%
    20:00 +4°C° 0.3 mm 7 mps 761 mmHg 78%
    21:00 +4°C° 0.3 mm 7 mps 761 mmHg 78%
    22:00 +4°C° 0.3 mm 7 mps 762 mmHg 77%
    23:00 +4°C° 0.1 mm 7 mps 762 mmHg 78%
    Show more